Flag for Italy Weather past 2 weeks in Trieste, Italy

Now
84 °F

Sunny.


Feels Like: 90 °F
Forecast: 62 / 87 °F
Wind: No wind

Location: Trieste

Current Time: Aug 31, 2015 at 2:00:44 PM

Latest Report: Aug 31, 2015 at 1:00 PM


Visibility: 13 mi

Pressure: 30.06 "Hg

Humidity: 67%

Dew point: 72 °F

Location of TriesteLocation

Historic Weather in Trieste — Graph

°F

Trieste temperature yesterday

Maximum temperature yesterday: 83 °F (at 3:00 PM)
Minimum temperature yesterday: 69 °F (at 7:00 AM)
Average temperature yesterday: 76 °F

Past Weeks' High & Low Weather Summary

 TemperatureHumidityPressure
High83 °F (Aug 30, 3:00 PM)97% (Aug 25, 5:00 AM)30.18 "Hg (Aug 25, 5:00 AM)
Low63 °F (Aug 20, 4:00 AM)33% (Aug 22, 3:00 PM)29.72 "Hg (Aug 17, 4:00 AM)
Average73 °F72%29.99 "Hg
* Reported Aug 16 12:00 Noon — Aug 31 12:00 Noon, Trieste, Weather by CustomWeather, © 2015

Note: Actual official high and low records may vary slightly from our data, if they occured in-between our weather recording intervals... More about our weather records

Advertising

Trieste weather history for previous 24 hours

 ConditionsComfort  
Time TempWeatherWind HumidityBarometerVisibility
12:00 PM
Mon, Aug 31
83 °FSunny.3 mph70%30.05 "Hg12 mi
11:00 AM80 °FSunny.No wind70%30.04 "Hg12 mi
10:00 AM78 °FSunny.No wind69%30.04 "Hg12 mi
9:00 AM76 °FSunny.No wind71%30.04 "Hg12 mi
8:00 AM70 °FSunny.No wind77%30.04 "Hg12 mi
7:00 AM78 °FSunny.1 mph82%30.04 "Hg12 mi
6:00 AM70 °FClear.5 mph90%30.05 "Hg12 mi
5:00 AM71 °FClear.No wind95%30.09 "Hg12 mi
4:00 AM72 °FClear.No wind94%30.09 "Hg12 mi
3:00 AM72 °FClear.No wind94%30.09 "Hg12 mi
2:00 AM73 °FClear.1 mph90%30.09 "Hg12 mi
1:00 AM72 °FClear.1 mph87%30.09 "Hg12 mi
12:00 AM74 °FClear.6 mph78%30.09 "Hg12 mi
10:00 PM
Sun, Aug 30
74 °FClear.No wind82%30.09 "Hg12 mi
9:00 PM76 °FClear.No wind80%30.08 "Hg12 mi
8:00 PM79 °FClear.No wind83%30.08 "Hg12 mi
7:00 PM81 °FSunny.No wind78%30.08 "Hg12 mi
6:00 PM82 °FSunny.No wind72%30.08 "Hg12 mi
5:00 PM82 °FSunny.No wind73%30.10 "Hg12 mi
4:00 PM82 °FSunny.No wind78%30.11 "Hg6 mi
3:00 PM83 °FSunny.1 mph72%30.11 "Hg12 mi
2:00 PM81 °FSunny.1 mph73%30.12 "Hg12 mi
Weather by CustomWeather, © 2015

See weather overviewHow to use our weather pages